Tracking 31027 objects as of 19-Jul-2025
HD Live streaming from Space Station
objects crossing your sky now

MATS

Track MATS now!
10-day predictions


NORAD ID: 54227
Int'l Code: 2022-147A
Perigee: 559.4 km
Apogee: 573.9 km
Inclination: 97.7 °
Period: 95.8 minutes
Semi major axis: 6937 km
RCS: Unknown
Launch date: November 4, 2022
Source: Sweden (SWED)
Launch site: Rocket Lab Launch Complex (RLLC)
Your satellite tracking list
DEWASAT-2
Track 1 satellite(s)




NASA's NSSDC Master Catalog

Two Line Element Set (TLE):
1 54227U 22147A   25199.85217413  .00002580  00000-0  19926-3 0  9998
2 54227  97.6740 198.7965 0010495 241.1917 118.8254 15.02394882147669
Source of the keplerian elements: AFSPC